Regional Weather Roundup
Issued by NWS Cleveland, OH

Home | Current Version | Previous Version | Graphics & Text | Print | Product List | Glossary On
Versions: 1 2 3 4 5 6 7 8 9 10 11 12 13 14 15 16 17 18 19 20 21 22 23 24 25 26 27 28 29 30 31 32 33 34 35 36 37 38 39 40 41 42 43 44 45 46 47 48 49 50
000
ASUS41 KCLE 280710
RWRCLE
OHIO REGIONAL WEATHER ROUNDUP
NATIONAL WEATHER SERVICE WILMINGTON, OH
200 AM EST WED JAN 28 2015

NOTE: "FAIR" INDICATES FEW OR NO CLOUDS BELOW 12,000 FEET WITH NO
SIGNIFICANT WEATHER AND/OR OBSTRUCTIONS TO VISIBILITY.

OHZ001>008-015>018-024>027-034-035-043-044-280800-
   NORTHWEST OHIO

CITY           SKY/WX    TMP DP  RH WIND       PRES   REMARKS
DEFIANCE       MOCLDY     7   3  84 CALM      30.26S
FINDLAY        MOCLDY     6   2  83 CALM      30.24R FOG
TOLEDO EXPRESS PTCLDY    11   6  81 CALM      30.25R
TOLEDO EXEC    PTCLDY    14   8  77 NW3       30.26R
LIMA           PTCLDY    10   5  80 CALM      30.23R HAZE
$$

OHZ009>014-019>023-028>033-038-089-280800-
   NORTHEAST OHIO

CITY           SKY/WX    TMP DP  RH WIND       PRES   REMARKS
CLE-HOPKINS    PTCLDY    11   9  92 W5        30.24R WCI   3
CLE-LAKEFRONT  CLEAR     10   8  92 W5        30.22R WCI   2
CUY CO. ARPT   NOT AVBL
LORAIN-ELYRIA  PTCLDY     9   7  92 N5        30.22R WCI   1
ASHTABULA      PTCLDY     1  -3  83 CALM      30.17R
AKRON-CANTON   PTCLDY    13   8  81 W5        30.16R WCI   5
WOOSTER        PTCLDY     5   3  91 W5        30.19R FOG     WCI  -4
MANSFIELD      MOCLDY     9   7  92 W3        30.19R
YOUNGSTOWN     PTCLDY     7   1  76 CALM      30.14R
$$

OHZ042-051>053-060>062-070>072-077>081-280800-
  SOUTHWEST OHIO

CITY           SKY/WX    TMP DP  RH WIND       PRES   REMARKS
CINC-COVINGTON CLEAR     17  11  77 CALM      30.25R
CINC-LUNKEN    CLEAR     15  12  88 CALM      30.30R
HAMILTON       PTCLDY    11   8  88 CALM      30.28R FOG
DAYTON         PTCLDY    11   8  88 CALM      30.24R FOG
WRIGHT-PAT AFB CLEAR      7   5  92 CALM      30.25R FOG
DAYTON GENERAL PTCLDY    13  11  92 CALM      30.24R FOG
WILMINGTON     PTCLDY     9   5  84 CALM      30.23R FOG
$$

OHZ036-037-039>041-045>050-054>059-063>069-073>076-082>088-280800-
  CENTRAL AND SOUTHEAST OHIO

CITY           SKY/WX    TMP DP  RH WIND       PRES   REMARKS
COLUMBUS       PTCLDY    11   7  84 CALM      30.24R FOG
OSU AIRPORT    PTCLDY    10   6  84 W5        30.23S WCI   2
BOLTON FIELD   FAIR       4   1  88 CALM      30.24R
RICKENBACK AFB PTCLDY     8   6  90 CALM      30.25R
NEWARK         PTCLDY     4  -1  80 CALM      30.23R
MARION         MOCLDY     4  -1  80 NW3       30.23R HAZE
LANCASTER      PTCLDY     3   0  87 CALM      30.24R
ZANESVILLE     CLOUDY    15   9  76 W6        30.22R WCI   6
NEW PHILLY     MOCLDY    12   8  84 CALM      30.21R
$$


USA.gov is the U.S. government's official web portal to all federal, state and local government web resources and services.